Location: *
(45.9500°N, 9.0833°E)
Time: 06:46:36
(UTC+00:00)

Transit 2A Rocket - All Passes

Search period start: 15 June 2021 00:00
Search period end: 25 June 2021 00:00
Orbit: 592 x 910 km, 66.7° (Epoch: 14 June)

Date Brightness Start Highest point End Pass type
(mag) Time Alt. Az. Time Alt. Az. Time Alt. Az.
15 Jun - 00:04:19 10° SSE 00:07:30 20° ESE 00:10:43 10° ENE visible
15 Jun - 01:45:32 10° SW 01:49:40 46° NW 01:53:58 10° NNE visible
15 Jun - 03:32:33 10° NW 03:33:26 10° NNW 03:34:19 10° NNW daylight
15 Jun - 07:03:11 10° NNE 07:03:40 10° NNE 07:04:09 10° NNE daylight
15 Jun - 08:42:58 10° NNW 08:47:34 38° NE 08:52:34 10° ESE daylight
15 Jun - 10:25:30 10° NW 10:30:09 37° WSW 10:35:10 10° S daylight
15 Jun - 23:24:04 10° ESE 23:25:13 11° ESE 23:26:22 10° E visible
16 Jun - 01:02:41 10° SW 01:06:59 82° NW 01:11:25 10° NNE visible
16 Jun - 02:47:47 10° WNW 02:50:18 15° NW 02:52:53 10° N visible
16 Jun - 08:00:38 10° NNW 08:04:43 25° NE 08:09:05 10° E daylight
16 Jun - 09:42:39 10° NW 09:47:37 62° WSW 09:53:03 10° SSE daylight
17 Jun - 00:20:14 10° SSW 00:24:24 55° ESE 00:28:43 10° NE visible
17 Jun - 02:03:54 10° W 02:07:17 22° NW 02:10:47 10° N visible
17 Jun - 07:18:26 10° N 07:21:45 18° NE 07:25:14 10° E daylight
17 Jun - 09:00:00 10° NNW 09:05:01 81° ENE 09:10:31 10° SE daylight
17 Jun - 10:43:56 10° WNW 10:47:05 16° WSW 10:50:22 10° SW daylight
17 Jun - 23:38:13 10° S 23:41:58 30° ESE 23:45:47 10° NE visible
18 Jun - 01:20:28 10° WSW 01:24:24 33° NW 01:28:29 10° NNE visible
18 Jun - 06:36:31 10° N 06:38:40 13° NNE 06:40:53 10° ENE daylight
18 Jun - 08:17:28 10° NNW 08:22:19 50° NE 08:27:37 10° SE daylight
18 Jun - 10:00:24 10° NW 10:04:42 27° WSW 10:09:17 10° SSW daylight
18 Jun - 22:56:53 10° SSE 22:59:36 17° ESE 23:02:22 10° ENE visible
19 Jun - 00:37:24 10° SW 00:41:38 56° NW 00:46:02 10° NNE visible
19 Jun - 02:23:31 10° NW 02:25:15 12° NNW 02:27:00 10° N visible
19 Jun - 07:35:02 10° NNW 07:39:32 33° NE 07:44:22 10° ESE daylight
19 Jun - 09:17:23 10° NW 09:22:13 45° WSW 09:27:28 10° S daylight
19 Jun - 23:54:41 10° SSW 23:58:58 82° ESE 00:03:26 10° NE visible
20 Jun - 01:39:15 10° WNW 01:42:09 17° NW 01:45:09 10° N visible
20 Jun - 06:52:45 10° N 06:56:38 22° NE 07:00:46 10° E daylight
20 Jun - 08:34:36 10° NW 08:39:40 75° WSW 08:45:12 10° SSE daylight
20 Jun - 10:19:56 10° W 10:21:31 11° WSW 10:23:09 10° WSW daylight
20 Jun - 23:12:23 10° S 23:16:27 44° ESE 23:20:39 10° NE visible
21 Jun - 00:55:33 10° W 00:59:10 25° NW 01:02:56 10° NNE visible
21 Jun - 06:10:36 10° N 06:13:37 16° NE 06:16:47 10° ENE daylight
21 Jun - 07:52:00 10° NNW 07:57:01 69° NE 08:02:31 10° SE daylight
21 Jun - 09:35:30 10° WNW 09:39:12 20° WSW 09:43:07 10° SSW daylight
21 Jun - 22:30:35 10° SSE 22:34:02 24° ESE 22:37:36 10° ENE visible
22 Jun - 00:12:15 10° WSW 00:16:19 40° NW 00:20:35 10° NNE visible
22 Jun - 05:28:51 10° N 05:30:30 11° NNE 05:32:10 10° NE daylight
22 Jun - 07:09:30 10° NNW 07:14:17 43° NE 07:19:30 10° ESE daylight
22 Jun - 08:52:13 10° NW 08:56:47 33° WSW 09:01:42 10° S daylight
22 Jun - 21:49:39 10° SE 21:51:44 13° ESE 21:53:50 10° ENE visible
22 Jun - 23:29:19 10° SW 23:33:35 70° NW 23:38:05 10° NNE visible
23 Jun - 01:14:48 10° WNW 01:17:04 14° NNW 01:19:23 10° N visible
23 Jun - 06:27:07 10° NNW 06:31:28 29° NE 06:36:08 10° ESE daylight
23 Jun - 08:09:18 10° NW 08:14:17 54° WSW 08:19:43 10° SSE daylight
23 Jun - 22:46:45 10° SSW 22:50:59 66° ESE 22:55:25 10° NE visible
24 Jun - 00:30:48 10° W 00:34:01 20° NW 00:37:21 10° N visible
24 Jun - 05:44:52 10° N 05:48:32 20° NE 05:52:25 10° E daylight
24 Jun - 07:26:35 10° NNW 07:31:41 88° WSW 07:37:17 10° SSE daylight
24 Jun - 09:10:58 10° WNW 09:13:40 14° WSW 09:16:29 10° SW daylight
24 Jun - 22:04:36 10° S 22:08:30 35° ESE 22:12:33 10° NE visible
24 Jun - 23:47:15 10° WSW 23:51:05 30° NW 23:55:05 10° NNE visible
